Location: Mountain View
(37.3861°N, 122.0839°W)
Time: 15:05:28
(UTC-08:00)

Hubble Space Telescope - Visible Passes

Search period start: 16 December 2018 00:00
Search period end: 26 December 2018 00:00
Orbit: 537 x 540 km, 28.5° (Epoch: 16 December)

Date Brightness Start Highest point End Pass type
(mag) Time Alt. Az. Time Alt. Az. Time Alt. Az.
20 Dec 3.4 19:17:21 10° SSW 19:18:06 12° S 19:18:06 12° S visible
21 Dec 3.0 19:06:29 10° SSW 19:08:19 16° S 19:08:19 16° S visible
22 Dec 2.7 18:55:42 10° SW 18:58:30 19° S 18:58:30 19° S visible
23 Dec 2.6 18:45:01 10° SW 18:48:07 21° S 18:48:42 20° SSE visible
24 Dec 2.5 18:34:22 10° SW 18:37:35 22° S 18:38:54 19° SSE visible
25 Dec 2.6 18:23:48 10° SW 18:27:04 23° S 18:29:07 16° SE visible
